EW4061 Weather Reports


time (UTC)temp
C
wind
direction
speed
KPH
gust
KPH
rain 1hr
cm
rain 24hr
cm
rain mn
cm
humidity
%
barometer
mb
20260510162703 25 254 4.8 17.7 0.00 0.00 0.00 43 1018.0
20260510161803 25 250 4.8 16.1 0.00 0.00 0.00 45 1018.1
20260510160924 25 216 4.8 24.1 0.00 0.00 0.00 45 1018.1
20260510160003 25 238 4.8 24.1 0.00 0.00 0.00 46 1018.2
20260510155403 24 259 4.8 17.7 0.00 0.00 0.00 44 1018.2
20260510154503 25 293 3.2 11.3 0.00 0.00 0.00 44 1018.2
20260510153624 25 288 3.2 9.7 0.00 0.00 0.00 47 1018.3
20260510152703 24 227 4.8 12.9 0.00 0.00 0.00 46 1018.4
20260510151824 23 255 4.8 16.1 0.00 0.00 0.00 49 1018.4
20260510150902 23 208 4.8 19.3 0.00 0.00 0.00 47 1018.4
20260510150024 23 273 3.2 11.3 0.00 0.00 0.00 48 1018.4
20260510145402 23 345 3.2 8.0 0.00 0.00 0.00 47 1018.4
20260510144523 23 195 3.2 9.7 0.00 0.00 0.00 47 1018.3
20260510143602 23 31 3.2 12.9 0.00 0.00 0.00 49 1018.4
20260510142702 22 201 4.8 12.9 0.00 0.00 0.00 52 1018.3
20260510141802 22 220 4.8 12.9 0.00 0.00 0.00 50 1018.4
20260510140902 22 138 3.2 9.7 0.00 0.00 0.00 49 1018.2
20260510140002 22 132 3.2 6.4 0.00 0.00 0.00 51 1018.4
20260510135423 22 249 3.2 6.4 0.00 0.00 0.00 52 1018.5
20260510134529 21 265 3.2 6.4 0.00 0.00 0.00 53 1018.4
20260510133607 21 263 3.2 12.9 0.00 0.00 0.00 53 1018.4
20260510132729 21 270 3.2 11.3 0.00 0.00 0.00 54 1018.4
20260510131808 21 325 1.6 8.0 0.00 0.00 0.00 54 1018.3
20260510130907 21 252 3.2 14.5 0.00 0.00 0.00 54 1018.2
20260510130007 20 245 1.6 9.7 0.00 0.00 0.00 56 1018.1
20260510125408 20 251 3.2 12.9 0.00 0.00 0.00 56 1018.1
20260510124507 20 265 3.2 9.7 0.00 0.00 0.00 57 1018.0
20260510123607 20 274 3.2 9.7 0.00 0.00 0.00 59 1018.0
20260510122707 19 268 1.6 6.4 0.00 0.00 0.00 61 1017.9
20260510121828 18 263 1.6 6.4 0.00 0.00 0.00 62 1017.9
20260510120928 18 255 1.6 8.0 0.00 0.00 0.00 62 1017.8
20260510120007 18 286 1.6 6.4 0.00 0.00 0.00 63 1017.9
20260510115407 17 293 1.6 6.4 0.00 0.00 0.00 64 1017.9
20260510114507 17 282 0.0 3.2 0.00 0.00 0.00 67 1017.7
20260510113607 16 277 0.0 4.8 0.00 0.00 0.00 67 1017.5
20260510112707 16 291 1.6 4.8 0.00 0.00 0.00 67 1017.5
20260510111807 16 302 0.0 4.8 0.00 0.00 0.00 67 1017.3
20260510110907 16 271 0.0 8.0 0.00 0.00 0.00 68 1017.1
20260510110007 16 346 0.0 3.2 0.00 0.00 0.00 68 1016.9
20260510105407 16 298 0.0 3.2 0.00 0.00 0.00 69 1016.8
20260510104507 16 292 0.0 1.6 0.00 0.00 0.00 66 1016.7
20260510103607 16 329 1.6 4.8 0.00 0.00 0.00 64 1016.7
20260510102707 16 325 1.6 8.0 0.00 0.00 0.00 63 1016.5
20260510101828 16 317 1.6 8.0 0.00 0.00 0.00 64 1016.4
20260510100907 16 293 0.0 6.4 0.00 0.00 0.00 64 1016.3
20260510100007 16 352 0.0 4.8 0.00 0.00 0.00 64 1016.2
20260510095427 16 290 1.6 9.7 0.00 0.00 0.00 64 1016.2
20260510094507 16 317 1.6 9.7 0.00 0.00 0.00 63 1016.2
20260510093628 16 319 1.6 9.7 0.00 0.00 0.00 64 1016.1
20260510092706 16 311 1.6 6.4 0.00 0.00 0.00 65 1016.0
20260510091806 17 308 1.6 8.0 0.00 0.00 0.00 65 1015.9
20260510090906 17 288 1.6 6.4 0.00 0.00 0.00 66 1015.8
20260510090006 17 289 1.6 14.5 0.00 0.00 0.00 66 1015.7
20260510085407 17 292 3.2 14.5 0.00 0.00 0.00 66 1015.6
20260510084506 17 275 3.2 9.7 0.00 0.00 0.00 67 1015.5
20260510083606 16 283 3.2 9.7 0.00 0.00 0.00 68 1015.6
20260510082706 16 284 3.2 8.0 0.00 0.00 0.00 69 1015.6
20260510081827 16 299 1.6 8.0 0.00 0.00 0.00 69 1015.7
20260510080906 16 295 1.6 4.8 0.00 0.00 0.00 69 1015.6
20260510080006 16 278 3.2 8.0 0.00 0.00 0.00 69 1015.4
20260510075406 16 284 3.2 8.0 0.00 0.00 0.00 70 1015.2
20260510074506 15 329 1.6 9.7 0.00 0.00 0.00 72 1015.1
20260510073606 15 283 0.0 3.2 0.00 0.00 0.00 72 1015.2
20260510072706 15 305 1.6 4.8 0.00 0.00 0.00 71 1015.2
20260510071827 15 282 3.2 9.7 0.00 0.00 0.00 70 1015.2
20260510070927 15 278 1.6 9.7 0.00 0.00 0.00 70 1015.2
20260510070006 15 284 1.6 6.4 0.00 0.00 0.00 72 1015.1
20260510065406 15 278 1.6 6.4 0.00 0.00 0.00 74 1015.1
20260510064506 14 284 0.0 4.8 0.00 0.00 0.00 76 1015.0
20260510063606 13 274 0.0 4.8 0.00 0.00 0.00 80 1015.1
20260510062727 12 275 0.0 3.2 0.00 0.00 0.00 82 1015.2
20260510061806 12 309 0.0 4.8 0.00 0.00 0.00 85 1015.2
20260510060905 11 0 0.0 0.0 0.00 0.00 0.00 86 1015.3
20260510060006 11 0 0.0 0.0 0.00 0.00 0.00 85 1015.3
20260510055406 11 15 0.0 4.8 0.00 0.00 0.00 85 1015.4
20260510054505 11 2 0.0 3.2 0.00 0.00 0.00 84 1015.4
20260510053605 11 0 0.0 0.0 0.00 0.00 0.00 84 1015.3
20260510052705 11 319 0.0 3.2 0.00 0.00 0.00 84 1015.4
20260510051805 11 319 0.0 1.6 0.00 0.00 0.00 84 1015.4
20260510050905 11 319 0.0 3.2 0.00 0.00 0.00 84 1015.4
20260510050005 12 319 0.0 1.6 0.00 0.00 0.00 83 1015.4
20260510045405 12 319 0.0 1.6 0.00 0.00 0.00 84 1015.4
20260510044505 12 322 0.0 4.8 0.00 0.00 0.00 82 1015.4
20260510043605 12 348 0.0 1.6 0.00 0.00 0.00 82 1015.3
20260510042705 12 340 0.0 3.2 0.00 0.00 0.00 81 1015.3
20260510041805 12 330 0.0 3.2 0.00 0.00 0.00 81 1015.4
20260510040926 12 330 1.6 3.2 0.00 0.00 0.00 81 1015.3
20260510040005 12 330 0.0 3.2 0.00 0.00 0.00 80 1015.3
20260510035405 12 330 0.0 3.2 0.00 0.00 0.00 80 1015.3
20260510034505 12 330 0.0 1.6 0.00 0.00 0.00 79 1015.4
20260510033626 13 330 0.0 3.2 0.00 0.00 0.00 78 1015.1
20260510032705 13 330 0.0 3.2 0.00 0.00 0.00 77 1015.1
20260510031805 13 330 0.0 1.6 0.00 0.00 0.00 77 1015.0
20260510030905 13 0 0.0 0.0 0.00 0.00 0.00 76 1015.0
20260510030005 13 0 0.0 0.0 0.00 0.00 0.00 75 1014.9
20260510025405 13 0 0.0 0.0 0.00 0.00 0.00 75 1014.8
20260510024505 14 18 0.0 3.2 0.00 0.00 0.00 74 1014.8
20260510023605 15 18 0.0 1.6 0.00 0.00 0.00 72 1014.7
20260510022705 15 13 0.0 3.2 0.00 0.00 0.00 70 1014.6
20260510021805 15 9 0.0 3.2 0.00 0.00 0.00 69 1014.5
20260510020926 15 0 0.0 0.0 0.00 0.00 0.00 68 1014.4
20260510020005 16 338 0.0 3.2 0.00 0.00 0.00 67 1014.4
20260510015405 16 312 0.0 3.2 0.00 0.00 0.00 67 1014.1
20260510014504 16 275 1.6 3.2 0.00 0.00 0.00 63 1014.1
20260510013604 16 260 0.0 3.2 0.00 0.00 0.00 62 1013.9
20260510012704 17 258 1.6 3.2 0.00 0.00 0.00 61 1013.7
20260510011804 17 283 1.6 3.2 0.00 0.00 0.00 58 1013.5
20260510010904 18 278 1.6 3.2 0.00 0.00 0.00 57 1013.5
20260510010005 18 271 1.6 4.8 0.00 0.00 0.00 55 1013.3
20260510005404 18 271 1.6 8.0 0.00 0.00 0.00 52 1013.4
20260510004504 19 280 1.6 6.4 0.00 0.00 0.00 53 1013.2
20260510003604 20 296 0.0 6.4 0.00 0.00 0.00 49 1013.1
20260510002704 20 318 1.6 4.8 0.00 0.00 0.00 48 1013.2
20260510001805 20 299 1.6 4.8 0.00 0.00 0.00 46 1013.1
20260510000925 20 282 1.6 9.7 0.00 0.00 0.00 46 1012.9
20260510000004 21 281 3.2 6.4 0.00 0.00 0.00 45 1012.8
20260509235404 21 300 1.6 6.4 0.00 0.00 0.00 45 1012.7
20260509234504 21 311 1.6 8.0 0.00 0.00 0.00 45 1012.5
20260509233604 21 289 3.2 11.3 0.00 0.00 0.00 44 1012.4
20260509232704 21 270 3.2 9.7 0.00 0.00 0.00 43 1012.3
20260509231804 21 269 3.2 12.9 0.00 0.00 0.00 44 1012.3
20260509230925 21 282 1.6 8.0 0.00 0.00 0.00 44 1012.2
20260509230025 22 275 1.6 6.4 0.00 0.00 0.00 45 1012.0
20260509225404 22 274 1.6 6.4 0.00 0.00 0.00 44 1012.0
20260509224504 22 296 3.2 8.0 0.00 0.00 0.00 44 1011.9
20260509223604 23 270 1.6 6.4 0.00 0.00 0.00 43 1012.0
20260509222704 22 308 1.6 3.2 0.00 0.00 0.00 45 1011.9
20260509221804 23 276 1.6 8.0 0.00 0.00 0.00 47 1011.9
20260509220903 23 265 3.2 8.0 0.00 0.00 0.00 43 1011.9
20260509220004 23 293 1.6 6.4 0.00 0.00 0.00 47 1011.8
20260509215403 23 263 3.2 8.0 0.00 0.00 0.00 44 1011.8
20260509214524 23 347 1.6 4.8 0.00 0.00 0.00 45 1011.8
20260509213603 23 320 1.6 6.4 0.00 0.00 0.00 44 1011.8
20260509212703 23 304 3.2 9.7 0.00 0.00 0.00 42 1011.7
20260509211803 24 274 3.2 9.7 0.00 0.00 0.00 41 1011.5
20260509210903 24 282 1.6 9.7 0.00 0.00 0.00 41 1011.5
20260509210003 25 258 3.2 12.9 0.00 0.00 0.00 38 1011.4
20260509205403 25 261 4.8 16.1 0.00 0.00 0.00 38 1011.4
20260509204524 25 237 6.4 16.1 0.00 0.00 0.00 39 1011.3
20260509203624 25 276 4.8 11.3 0.00 0.00 0.00 38 1011.3
20260509202703 25 195 4.8 12.9 0.00 0.00 0.00 39 1011.3
20260509201803 25 293 4.8 12.9 0.00 0.00 0.00 40 1011.3
20260509200903 25 205 4.8 12.9 0.00 0.00 0.00 40 1011.2
20260509200011 24 231 6.4 16.1 0.00 0.00 0.00 40 1011.3
20260509195411 24 251 4.8 14.5 0.00 0.00 0.00 42 1011.3
20260509194511 23 249 4.8 19.3 0.00 0.00 0.00 41 1011.4
20260509193632 23 270 3.2 14.5 0.00 0.00 0.00 40 1011.5
20260509192711 23 195 3.2 11.3 0.00 0.00 0.00 44 1011.2
20260509191811 23 247 1.6 8.0 0.00 0.00 0.00 46 1011.3
20260509190911 23 334 3.2 9.7 0.00 0.00 0.00 45 1011.4
20260509190032 23 272 4.8 14.5 0.00 0.00 0.00 42 1011.5
20260509185412 24 243 4.8 14.5 0.00 0.00 0.00 41 1011.5
20260509184511 23 253 4.8 12.9 0.00 0.00 0.00 42 1011.5
20260509183611 23 171 4.8 14.5 0.00 0.00 0.00 43 1011.5
20260509182710 22 309 3.2 14.5 0.00 0.00 0.00 45 1011.8
20260509181811 23 244 3.2 11.3 0.00 0.00 0.00 46 1011.9
20260509180910 22 210 3.2 14.5 0.00 0.00 0.00 46 1011.9
20260509180011 22 173 4.8 12.9 0.00 0.00 0.00 49 1011.9
20260509175410 22 173 4.8 16.1 0.00 0.00 0.00 45 1012.0
20260509174511 21 174 3.2 6.4 0.00 0.00 0.00 58 1012.2
20260509173610 21 184 1.6 6.4 0.00 0.00 0.00 56 1012.4
20260509172710 21 115 0.0 4.8 0.00 0.00 0.00 60 1012.4
20260509171810 21 147 1.6 6.4 0.00 0.00 0.00 61 1012.5
20260509170910 21 200 1.6 8.0 0.00 0.00 0.00 56 1012.5
20260509170010 20 65 1.6 6.4 0.00 0.00 0.00 61 1012.7
20260509165410 20 69 1.6 6.4 0.00 0.00 0.00 58 1012.8
20260509164510 20 127 0.0 4.8 0.00 0.00 0.00 66 1012.8
20260509163610 20 84 1.6 4.8 0.00 0.00 0.00 62 1013.0